Total_Precipitation_Accumulation
2.57 2.15 3.51 3.69 3.32 2.97 2.72 2.74 2.88 2.86 2.95 2.95 2.83 2.58 2.42 2.35 2.41 2.51 2.27 2.02 1.98 2.04 2.29 2.45 2.36 2.40 2.27 2.25 2.29 2.43 2.52 2.52 2.60 2.31 2.06 1.96 1.87 1.96 2.17 2.36 2.59 2.86 2.43
1.80 1.82 3.11 3.50 3.36 3.13 2.98 2.92 2.94 2.95 2.95 2.87 2.73 2.59 2.30 2.15 2.31 2.60 2.34 2.21 2.07 1.98 2.12 2.33 2.42 2.52 2.47 2.48 2.59 2.61 2.57 2.52 2.58 2.43 2.38 2.34 2.11 2.07 1.96 2.14 2.58 2.82 2.29
1.57 1.73 2.50 3.40 3.35 3.07 3.05 2.98 2.86 2.86 2.84 2.69 2.54 2.32 2.25 2.14 2.22 2.52 2.38 2.35 2.24 2.12 2.20 2.40 2.58 2.65 2.65 2.70 2.84 2.79 2.66 2.70 2.63 2.45 2.76 3.17 2.57 2.29 2.21 2.23 2.25 2.27 2.17
1.31 1.52 2.10 2.93 2.86 2.78 2.76 2.57 2.48 2.44 2.37 2.40 2.39 2.20 2.14 2.15 2.32 2.57 2.47 2.30 2.16 2.08 2.15 2.37 2.58 2.52 2.58 2.72 2.83 2.98 2.86 2.90 2.81 2.50 2.66 3.08 2.95 2.64 2.52 2.47 2.25 2.18 2.35
1.11 1.42 2.16 2.77 2.65 2.63 2.57 2.31 2.31 2.20 2.12 2.17 2.26 2.18 2.21 2.16 2.22 2.42 2.43 2.39 2.36 2.39 2.35 2.48 2.56 2.49 2.57 2.71 2.79 2.99 3.09 3.10 2.81 2.26 2.24 2.65 3.30 3.08 2.60 2.53 2.43 2.40 2.45
1.17 1.32 1.84 2.43 2.39 2.33 2.30 2.34 2.28 2.12 2.10 2.07 2.10 2.15 2.17 2.17 2.14 2.26 2.40 2.34 2.31 2.54 2.65 2.62 2.63 2.65 2.64 2.64 2.62 2.87 3.11 2.89 2.41 2.29 2.40 2.72 3.17 3.05 2.55 2.36 2.46 2.56 2.58
1.06 1.10 1.45 2.10 2.11 2.06 2.09 2.20 2.27 2.18 2.17 2.09 2.09 2.24 2.26 2.19 2.18 2.26 2.41 2.38 2.30 2.41 2.66 2.60 2.51 2.49 2.42 2.44 2.45 2.57 2.81 2.64 2.26 2.35 2.49 2.77 2.81 2.90 2.60 2.41 2.53 2.57 2.65
1.15 1.07 1.23 1.89 2.05 1.93 2.01 2.08 2.16 2.23 2.21 2.11 2.11 2.14 2.20 2.27 2.20 2.24 2.28 2.32 2.24 2.28 2.45 2.46 2.33 2.32 2.17 2.15 2.24 2.32 2.46 2.22 1.90 2.07 2.33 2.70 2.98 2.95 2.49 2.30 2.28 2.44 2.61
1.41 1.36 1.41 1.63 1.79 1.93 2.04 2.06 2.20 2.31 2.25 2.08 1.98 1.98 2.01 2.12 2.05 1.98 1.95 2.08 2.10 2.18 2.25 2.24 2.28 2.31 2.20 2.17 2.21 2.28 2.29 2.01 1.82 2.07 2.02 2.62 3.21 3.06 2.61 2.36 2.21 2.35 2.48
1.36 1.36 1.40 1.53 1.58 1.62 1.78 2.12 2.39 2.73 2.59 2.13 1.82 1.68 1.81 1.83 1.79 1.85 1.77 1.88 2.01 2.18 2.41 2.41 2.43 2.31 2.30 2.20 2.12 2.15 2.05 1.72 1.78 1.81 2.07 2.57 3.39 3.18 2.69 2.33 2.11 2.06 2.12
1.05 1.10 1.21 1.33 1.37 1.43 1.45 1.70 2.21 2.66 2.65 2.19 1.81 1.74 1.66 1.39 1.37 1.55 1.72 1.98 2.13 2.28 2.63 2.71 2.60 2.43 2.27 2.12 2.02 1.95 1.61 1.36 1.61 1.75 2.12 2.79 3.29 3.16 2.67 2.29 2.03 1.94 1.82
0.86 0.82 0.85 0.89 1.00 1.09 1.10 1.43 1.74 1.78 1.98 1.74 1.68 1.60 1.54 1.52 1.51 1.30 1.45 1.90 2.14 2.20 2.47 2.65 2.58 2.21 1.76 1.56 1.63 1.64 1.33 1.25 1.39 1.58 2.09 2.95 3.40 3.21 2.66 2.27 2.06 1.97 1.80
0.78 0.76 0.70 0.71 0.79 0.93 1.09 1.25 1.46 1.61 1.76 1.73 1.68 1.69 1.78 1.75 1.45 1.30 1.38 1.51 1.69 1.79 1.80 1.96 1.99 1.71 1.45 1.37 1.49 1.40 1.23 1.20 1.30 1.44 2.06 2.90 3.41 3.28 2.67 2.23 2.11 2.08 2.04
0.65 0.75 0.71 0.58 0.61 0.70 0.79 0.97 1.13 1.34 1.54 1.59 1.43 1.41 1.57 1.65 1.48 1.35 1.51 1.55 1.64 1.75 1.80 1.80 1.77 1.59 1.28 1.22 1.35 1.35 1.21 1.26 1.28 1.37 1.83 2.38 2.91 3.13 2.92 2.54 2.42 2.30 2.39
0.65 0.73 0.77 0.68 0.63 0.67 0.72 0.79 0.82 1.11 1.29 1.45 1.52 1.34 1.45 1.54 1.50 1.39 1.35 1.51 1.50 1.63 1.68 1.77 1.82 1.67 1.47 1.31 1.31 1.28 1.36 1.36 1.28 1.24 1.53 1.81 2.14 2.75 3.07 3.02 2.87 2.69 2.66
0.61 0.70 0.73 0.74 0.72 0.72 0.74 0.74 0.74 0.81 0.90 1.00 0.96 0.96 1.14 1.29 1.33 1.36 1.25 1.32 1.42 1.63 1.88 1.98 1.80 1.70 1.58 1.50 1.50 1.43 1.43 1.39 1.35 1.25 1.39 1.53 1.52 1.84 2.41 2.98 3.21 3.10 2.97
0.59 0.65 0.71 0.76 0.83 0.84 0.84 0.89 0.87 0.81 0.83 0.83 0.80 0.81 0.91 1.04 1.14 1.24 1.30 1.29 1.34 1.61 1.91 2.12 1.99 1.85 1.66 1.62 1.59 1.54 1.45 1.45 1.39 1.34 1.45 1.60 1.46 1.45 1.85 2.50 3.14 3.37 3.18
0.58 0.56 0.59 0.64 0.73 0.78 0.83 0.88 0.97 0.96 0.96 0.94 0.96 0.92 0.89 1.04 1.16 1.25 1.35 1.31 1.33 1.58 1.86 2.11 2.17 2.15 2.04 1.94 1.81 1.70 1.61 1.70 1.56 1.46 1.55 1.69 1.79 1.62 1.66 2.01 2.51 3.00 3.17
0.53 0.47 0.46 0.53 0.57 0.60 0.64 0.71 0.84 0.92 0.99 1.07 1.07 1.08 1.11 1.18 1.20 1.31 1.52 1.55 1.56 1.74 1.84 1.87 2.04 2.09 2.14 2.10 1.85 1.79 1.71 1.80 1.87 1.77 1.86 1.98 2.03 1.95 1.82 1.75 1.92 2.13 2.68
0.45 0.45 0.45 0.49 0.50 0.48 0.50 0.61 0.75 0.83 0.89 1.08 1.14 1.19 1.47 1.61 1.42 1.38 1.55 1.61 1.66 1.92 1.97 2.01 2.24 2.23 2.15 2.21 1.97 1.84 1.79 1.79 1.81 2.01 2.16 2.19 2.17 1.99 1.95 1.80 1.88 1.82 2.17
0.30 0.30 0.36 0.40 0.49 0.50 0.44 0.47 0.63 0.76 0.89 1.04 1.23 1.24 1.46 1.59 1.51 1.54 1.61 1.67 1.71 1.84 1.90 2.01 2.37 2.42 2.26 2.12 2.29 2.28 2.16 1.95 1.85 1.93 2.06 2.28 2.36 2.14 2.05 2.05 1.95 1.86 1.77
0.27 0.22 0.24 0.28 0.39 0.51 0.54 0.58 0.72 0.91 1.02 1.14 1.32 1.36 1.44 1.46 1.44 1.40 1.63 1.78 1.76 1.93 1.98 2.13 2.43 2.69 2.43 2.23 2.58 3.06 2.80 2.49 2.12 1.88 1.91 1.97 2.20 2.18 2.01 1.88 1.81 1.80 1.76
0.20 0.17 0.21 0.31 0.45 0.62 0.80 1.04 1.31 1.61 1.77 1.66 1.55 1.64 1.73 1.77 1.69 1.65 1.76 1.93 1.90 1.98 2.09 2.13 2.22 2.74 2.90 2.64 2.56 3.15 3.02 2.76 2.70 2.15 1.73 1.62 1.89 2.08 2.06 1.92 1.87 1.95 1.95
0.25 0.31 0.41 0.54 0.70 0.87 1.07 1.30 1.59 1.86 2.07 2.08 2.13 2.18 2.15 2.07 1.95 1.82 1.87 1.97 2.02 2.10 2.07 1.89 2.05 2.55 3.08 3.13 2.88 2.65 2.48 2.40 2.58 2.50 1.93 1.58 1.63 1.82 2.02 1.91 1.90 2.01 2.07
0.43 0.56 0.68 0.93 1.09 1.23 1.28 1.37 1.60 1.72 1.81 1.92 2.09 2.16 2.17 2.09 1.99 1.84 1.80 1.96 2.07 2.14 2.12 2.15 2.29 2.59 2.91 3.20 3.15 2.89 2.60 2.33 1.91 2.10 2.15 1.92 1.62 1.52 1.61 1.74 1.89 1.95 2.02
0.74 0.97 1.12 1.26 1.37 1.36 1.31 1.30 1.42 1.57 1.68 1.79 1.95 2.03 1.98 1.87 1.85 1.80 1.79 1.85 1.86 1.94 2.03 2.19 2.42 2.55 2.72 2.95 3.02 2.71 2.57 2.47 2.23 2.04 1.89 1.97 1.92 1.60 1.45 1.45 1.57 1.76 1.83